Miscellaneous Local Product
Issued by NWS North Platte, NE

Home | Current Version | Previous Version | Graphics & Text | Print | Product List | Glossary On
Versions: 1 2 3 4 5 6 7 8 9 10 11 12 13 14 15 16 17 18 19 20 21 22 23 24 25 26 27 28 29 30 31 32 33 34 35 36 37 38 39 40 41 42 43 44 45 46 47 48 49 50
062
AXUS43 KLBF 250510
MISLBF


WESTERN AND NORTH CENTRAL NEBRASKA HOURLY WEATHER ROUNDUP
NATIONAL WEATHER SERVICE NORTH PLATTE NE
1200 AM CDT SUN SEP 25 2016

NOTE: "FAIR" INDICATES FEW OR NO CLOUDS BELOW 12,000 FEET WITH NO
SIGNIFICANT WEATHER AND/OR OBSTRUCTIONS TO VISIBILITY.

NOTE: STATIONS NOT REPORTING VARIABLES SUCH AS SKY/WEATHER OR
PRESSURE ARE PROVIDED BY RAWS AND APRS NETWORKS AND ARE NOT UNDER
NATIONAL WEATHER SERVICE QUALITY CONTROL.

...OBSERVATIONS IN AND NEAR THE EASTERN PANHANDLE OF NEBRASKA...

CITY           SKY/WX    TMP DP  RH WIND       PRES   REMARKS
PINE RIDGE     CLOUDY    52  43  71 W20G26    30.12R
CHADRON        CLOUDY    54  40  59 W21G37    30.17R
ALLIANCE       CLEAR     48  41  76 W14       30.19R
SIDNEY         CLOUDY    49  41  74 NW9       30.24R
CRESCENT LAKE    N/A     49  41  74 NW8         N/A
$$

...OBSERVATIONS IN NORTHERN NEBRASKA AND FAR SOUTHERN SOUTH DAKOTA...

CITY           SKY/WX    TMP DP  RH WIND       PRES   REMARKS
WINNER         FAIR      57  42  57 W17       30.00R
VALENTINE      CLEAR     55  39  54 W22G28    30.05R
THEDFORD       CLEAR     54  42  65 W15       30.10S
AINSWORTH      CLEAR     55  42  61 W10       30.06R
O`NEILL        PTCLDY    60  42  51 W15       30.02R
ORD            CLEAR     57  43  59 NW16      30.02R
BROKEN BOW     CLEAR     58  42  55 NW16G29   30.07R
VALENTINE NWR    N/A     55  40  58 W16G25      N/A
BUTTE            N/A     58  44  59 W10G20      N/A
HALSEY           N/A     56  40  56 W9G18       N/A
EWING            N/A     58  49  73 W6          N/A
$$

...OBSERVATIONS IN SOUTHWEST NEBRASKA AND FAR NORTHEAST COLORADO...

CITY           SKY/WX    TMP DP  RH WIND       PRES   REMARKS
HOLYOKE        FAIR      54  41  62 NW10      30.20R
IMPERIAL       CLEAR     57  40  52 N15       30.16R
OGALLALA       CLEAR     56  43  60 W7        30.17R
NORTH PLATTE   CLEAR     55  42  61 NW8       30.12R
MCCOOK         CLEAR     60  41  49 N18       30.09R
LEXINGTON      CLEAR     55  44  65 NW9       30.08R
STAPLETON        N/A     53  42  66 CALM        N/A
GOTHENBURG       N/A     59  40  49 NW8         N/A
CALLAWAY         N/A     56  45  66 NW14        N/A
$$

...OBSERVATIONS IN CENTRAL LINCOLN COUNTY AREA...

CITY           SKY/WX    TMP DP  RH WIND       PRES   REMARKS
N.P. AIRPORT   CLEAR     55  42  61 NW8       30.12R
N.P. DOWNTOWN    N/A     56  43  61 NW5         N/A
N.P. SOUTHEAST   N/A     56  42  58 CALM        N/A
N.P. HILLCREST   N/A     55  42  62 NW9         N/A
$$

...SOME OBSERVATIONS FROM AROUND THE REGION...

CITY           SKY/WX    TMP DP  RH WIND       PRES   REMARKS
DENVER         PTCLDY    49  33  54 N5        30.28R
LARAMIE        CLOUDY    41  34  76 NW10      30.36R
CHEYENNE       MOCLDY    46  35  65 NW14G22   30.30R
SCOTTSBLUFF    CLEAR     45  41  86 W6        30.24R
RAPID CITY     CLOUDY    54  39  57 NW17G30   30.05R
BISMARCK       PTCLDY    55  49  80 SW8       29.75S
PIERRE         CLEAR     53  40  61 SW15      29.92S
SIOUX FALLS    CLOUDY    70  68  93 SW7       29.91S
OMAHA          CLOUDY    70  66  87 SE7       29.96F
GRAND ISLAND   CLEAR     60  58  92 W7        29.99R
KANSAS CITY    TSTM      69  66  90 W7        30.04  FOG
WICHITA        CLOUDY    67  66  97 S3        30.00R
OKLAHOMA CITY  TSTM      70  68  93 SW5       30.00R FOG
DALLAS         CLOUDY    78  71  79 S9        29.98R
AMARILLO       CLEAR     61  55  81 SE12      30.04R
DODGE CITY     CLEAR     59  58  96 CALM      30.05R FOG
HAYS           CLOUDY    64  55  72 CALM      30.02R
GOODLAND       CLOUDY    58  41  53 N15       30.16R
$$




USA.gov is the U.S. government's official web portal to all federal, state and local government web resources and services.